Location: Ocean City
(38.3360°N, 75.0850°W)
Time: 18:27:35
(UTC-05:00)

Courier 1B Rocket - Visible Passes

Search period start: 14 November 2019 00:00
Search period end: 24 November 2019 00:00
Orbit: 920 x 1202 km, 28.2° (Epoch: 14 November)

Date Brightness Start Highest point End Pass type
(mag) Time Alt. Az. Time Alt. Az. Time Alt. Az.
14 Nov 6.3 18:00:08 10° WSW 18:07:07 39° S 18:12:53 15° ESE visible
14 Nov 6.5 19:53:21 10° WSW 19:59:15 34° SSW 19:59:15 34° SSW visible
15 Nov 6.3 18:52:10 10° WSW 18:59:12 39° S 19:02:01 30° SE visible
15 Nov 7.4 20:46:01 10° WSW 20:48:23 18° WSW 20:48:23 18° WSW visible
16 Nov 6.3 17:51:08 10° WSW 17:58:05 39° S 18:04:49 12° ESE visible
16 Nov 6.5 19:44:34 10° WSW 19:51:12 31° SSW 19:51:12 31° SSW visible
17 Nov 6.5 18:43:20 10° WSW 18:50:10 36° S 18:54:03 23° SE visible
17 Nov 7.4 20:37:38 10° WSW 20:40:26 17° SW 20:40:26 17° SW visible
18 Nov 6.5 17:42:15 10° WSW 17:49:04 38° S 17:56:08 10° ESE visible
18 Nov 6.8 19:35:58 10° WSW 19:42:07 26° SSW 19:43:21 25° S visible
19 Nov 6.7 18:34:37 10° WSW 18:41:05 31° SSW 18:46:22 15° SE visible
19 Nov 7.5 20:29:46 10° WSW 20:32:45 15° SW 20:32:45 15° SW visible
20 Nov 6.7 17:33:28 10° WSW 17:40:02 35° S 17:46:53 10° SE visible
20 Nov 7.2 19:27:40 10° WSW 19:32:59 20° SSW 19:35:51 17° S visible
21 Nov 7.0 18:26:06 10° WSW 18:32:00 25° SSW 18:38:05 10° SSE visible
22 Nov 6.9 17:24:50 10° WSW 17:31:00 30° SSW 17:37:27 10° SE visible
22 Nov 7.6 19:19:57 10° WSW 19:23:50 15° SSW 19:27:47 10° S visible
23 Nov 7.4 18:17:54 10° WSW 18:22:54 19° SSW 18:28:04 10° SSE visible
